Regional Weather Roundup
Issued by NWS Cleveland, OH

Home | Current Version | Previous Version | Graphics & Text | Print | Product List | Glossary On
Versions: 1 2 3 4 5 6 7 8 9 10 11 12 13 14 15 16 17 18 19 20 21 22 23 24 25 26 27 28 29 30 31 32 33 34 35 36 37 38 39 40 41 42 43 44 45 46 47 48 49 50
965
ASUS41 KCLE 230710
RWRCLE
OHIO REGIONAL WEATHER ROUNDUP
NATIONAL WEATHER SERVICE CLEVELAND, OH
300 AM EDT WED AUG 23 2017

NOTE: "FAIR" INDICATES FEW OR NO CLOUDS BELOW 12,000 FEET WITH NO
SIGNIFICANT WEATHER AND/OR OBSTRUCTIONS TO VISIBILITY.

OHZ001>008-015>018-024>027-034-035-043-044-230800-
   NORTHWEST OHIO

CITY           SKY/WX    TMP DP  RH WIND       PRES   REMARKS
DEFIANCE       CLEAR     57  53  86 CALM      29.97S
FINDLAY        PTCLDY    58  53  84 W3        29.95F
TOLEDO EXPRESS CLEAR     58  55  90 W8        29.95S
TOLEDO EXEC    CLEAR     59  55  87 SW5       29.95S
LIMA           CLEAR     58  56  93 W5        29.98S
$$

OHZ009>014-019>023-028>033-038-089-230800-
   NORTHEAST OHIO

CITY           SKY/WX    TMP DP  RH WIND       PRES   REMARKS
CLE-HOPKINS    PTCLDY    66  55  67 NW6       29.93S
CLE-LAKEFRONT  PTCLDY    71  55  56 NW13      29.90S
CUY CO. ARPT   NOT AVBL
LORAIN-ELYRIA  CLEAR     61  51  70 NW5       29.93S
ASHTABULA      CLEAR     60  57  89 CALM      29.90F
AKRON-CANTON   CLOUDY    65  62  90 W6        29.92S FOG
WOOSTER        PTCLDY    60  59  96 W3        29.94R
MANSFIELD      PTCLDY    60  57  89 VRB3      29.96R
YOUNGSTOWN     MOCLDY    63  62  97 CALM      29.91R
$$

OHZ042-051>053-060>062-070>072-077>081-230800-
  SOUTHWEST OHIO

CITY           SKY/WX    TMP DP  RH WIND       PRES   REMARKS
CINC-COVINGTON CLOUDY    69  65  86 N12       29.98S
CINC-LUNKEN    CLOUDY    71  63  75 N12       29.97S
HAMILTON       CLEAR     63  63 100 CALM      29.99S
DAYTON         PTCLDY    62  58  86 NW5       29.99S
WRIGHT-PAT AFB CLEAR     64  58  80 NW3       29.97S
DAYTON GENERAL PTCLDY    65  56  72 N7        29.98S
WILMINGTON     CLOUDY    66  60  81 N8        29.97S
$$

OHZ036-037-039>041-045>050-054>059-063>069-073>076-082>088-230800-
  CENTRAL AND SOUTHEAST OHIO

CITY           SKY/WX    TMP DP  RH WIND       PRES   REMARKS
COLUMBUS       CLOUDY    66  57  72 NW9       29.94S
OSU AIRPORT    CLEAR     64  58  80 NW7       29.96R
BOLTON FIELD   CLOUDY    63  58  84 NW3       29.97S
RICKENBACK AFB CLOUDY    65  58  76 N7        29.95S
NEWARK         CLOUDY    65  58  78 NW6       29.94S
MARION         CLEAR     60  55  83 W6        29.97R
LANCASTER      CLOUDY    66  58  75 NW9       29.95S
ZANESVILLE     CLOUDY    69  62  78 NW7       29.93S
NEW PHILLY     NOT AVBL
$$




USA.gov is the U.S. government's official web portal to all federal, state and local government web resources and services.